"Pseudo-MPEC" for P22oVOw

Created 2026 Aug 8 0:35:09 UT using Find_Orb

Click here for an explanation of pseudo-MPECs

 
 Astrometry: 
     P22oVOw*0C2026 08 07.37365422 05 58.736+12 24 07.21   ~87BK 20.79wXNEOCPF52
     P22oVOw 0C2026 08 07.38384822 05 59.530+12 23 46.25   ~87BK 20.77wXNEOCPF52
     P22oVOw 0C2026 08 07.39399422 06 00.311+12 23 25.54   ~87BK 20.75wXNEOCPF52
     P22oVOw 0C2026 08 07.40414122 06 01.094+12 23 04.69   ~87BK 20.76wXNEOCPF52
     P22oVOw 0C2026 08 07.50310122 06 08.628+12 19 40.11   ~87HK 20.46GVNEOCPF51
     P22oVOw 0C2026 08 07.50392822 06 08.686+12 19 38.38   ~87HK 20.43GVNEOCPF51
     P22oVOw 1C2026 08 07.88423022 06 41.879+12 06 10.90   ~87LZ 21.1 GXNEOCP033
     P22oVOw 1C2026 08 07.88588022 06 42.048+12 06 08.40   ~87LZ 21.2 GXNEOCP033
     P22oVOw 1C2026 08 07.88792022 06 42.228+12 06 03.60   ~87LZ 20.8 GXNEOCP033
     P22oVOw KB2026 08 07.96125 22 06 47.89 +12 03 31.2    ~880Z 20.3 GXNEOCPL04
     P22oVOw KB2026 08 07.98935 22 06 50.04 +12 02 31.7    ~880Z 20.1 GXNEOCPL04

Station data:
(033) Karl Schwarzschild Observatory, Tautenburg  (N50.980139 E11.711240)
   Germany.  Observer B. Stecklum. 1.34-m f/3 Schmidt + CCD.
(F51) Pan-STARRS 1, Haleakala  (N20.707234 W156.255910)  US/Hawaii.
   Observers J. Herman, T. Lowe, P. Minguez, A. Schultz, I. Smith. Measurers
   K. Chambers, T. de Boer, J. Fairlamb, H. Gao, M. Huber, C.-C. Lin, E.
   Magnier, Y. Ramanjooloo, R. Wainscoat, R. Weryk. 1.8-m Ritchey-Chrétien +
   CCD.
(F52) Pan-STARRS 2, Haleakala  (N20.707382 W156.255910)  US/Hawaii.
   Observers J. Herman, T. Lowe, P. Minguez, A. Schultz, I. Smith. Measurers
   K. Chambers, T. de Boer, J. Fairlamb, H. Gao, M. Huber, C.-C. Lin, E.
   Magnier, Y. Ramanjooloo, R. Wainscoat, R. Weryk. 1.8-m Ritchey-Chrétien +
   CCD.
(L04) ROASTERR-1 Observatory, Cluj-Napoca  (N46.820952 E23.596400)  Romania.
   Observer L. Hudin. 0.1-m f/9 refractor + CCD.

Orbital elements:  P22oVOw
   Perihelion 2026 Aug 14.818977 +/- 7.31 TT = 19:39:19.6 (JD 2461267.318977)
Epoch 2026 Aug  8.0 TT = JDT 2461260.5   Earth MOID: 0.3513   Ma: 0.0013
M 358.396106122 +/- 1.7             (J2000 ecliptic)             AutoNEOCP
n   0.235210332 +/- 0.00851         Peri.  165.729935 +/- 6
a   2.599152639 +/- 0.0627          Node   159.596652 +/- 0.6
e   0.47844141 +/- 0.0111           Incl.   18.695151 +/- 0.7
P   4.19032                H 21.11  G  0.15   U  9.6
q 1.355610374 +/- 0.00417    Q 3.842694904 +/- 0.121
From 11 observations 2026 Aug. 7 (14.8 hr); mean residual 0".22
Residuals in arcseconds: 
260807 F52  .00   .02+    260807 F51  .02+  .01-    260807 033  .23+  .05-    
260807 F52  .04+  .06-    260807 F51  .05-  .02-    260807 L04  .46+  .09+    
260807 F52  .01-  .04+    260807 033  .54-  .48-    260807 L04  .19-  .02-    
260807 F52  .01+  .02+    260807 033  .01-  .47+    

Ephemerides (geocentric):
Date (UTC) HH   RA             Dec           delta  r     elong  mag " sig PA
---- --------  ------------   ------------  ------ ------ -----  --- --------
2026 08 08 01  22 06 54.569   +12 00 53.85  .38524 1.3574 148.4 20.8 .361 166
2026 08 08 02  22 06 58.101   +11 59 25.48  .38510 1.3574 148.5 20.8 .434 164
2026 08 08 03  22 07 01.633   +11 57 56.97  .38496 1.3573 148.5 20.8 .515 163
2026 08 08 04  22 07 05.164   +11 56 28.32  .38482 1.3573 148.6 20.8 .603 161
2026 08 08 05  22 07 08.694   +11 54 59.53  .38468 1.3573 148.6 20.8 .699 160
2026 08 08 06  22 07 12.224   +11 53 30.59  .38454 1.3573 148.7 20.8 .802 159
2026 08 08 07  22 07 15.753   +11 52 01.51  .38440 1.3573 148.7 20.8 .913 158
2026 08 08 08  22 07 19.281   +11 50 32.30  .38426 1.3572 148.8 20.8 1.03 158
2026 08 08 09  22 07 22.809   +11 49 02.94  .38412 1.3572 148.8 20.8 1.16 157
2026 08 08 10  22 07 26.336   +11 47 33.44  .38399 1.3572 148.8 20.8 1.29 156
2026 08 08 11  22 07 29.862   +11 46 03.80  .38385 1.3572 148.9 20.8 1.43 156
2026 08 08 12  22 07 33.388   +11 44 34.03  .38371 1.3571 148.9 20.8 1.58 155
2026 08 08 13  22 07 36.913   +11 43 04.11  .38357 1.3571 149.0 20.8 1.73 155
2026 08 08 14  22 07 40.437   +11 41 34.05  .38343 1.3571 149.0 20.8 1.90 155
2026 08 08 15  22 07 43.961   +11 40 03.85  .38330 1.3571 149.1 20.8 2.07 154
2026 08 08 16  22 07 47.484   +11 38 33.51  .38316 1.3571 149.1 20.8 2.24 154
2026 08 08 17  22 07 51.007   +11 37 03.02  .38302 1.3570 149.1 20.8 2.43 154
2026 08 08 18  22 07 54.529   +11 35 32.40  .38289 1.3570 149.2 20.8 2.62 153
2026 08 08 19  22 07 58.050   +11 34 01.64  .38275 1.3570 149.2 20.8 2.82 153
2026 08 08 20  22 08 01.570   +11 32 30.74  .38261 1.3570 149.3 20.8 3.03 153
2026 08 08 21  22 08 05.090   +11 30 59.70  .38248 1.3570 149.3 20.8 3.25 153
2026 08 08 22  22 08 08.609   +11 29 28.52  .38234 1.3570 149.4 20.8 3.47 152
2026 08 08 23  22 08 12.128   +11 27 57.20  .38221 1.3569 149.4 20.8 3.71 152
2026 08 09 00  22 08 15.646   +11 26 25.74  .38207 1.3569 149.5 20.8 3.95 152
2026 08 09 01  22 08 19.163   +11 24 54.14  .38194 1.3569 149.5 20.8 4.19 152
2026 08 09 02  22 08 22.680   +11 23 22.40  .38181 1.3569 149.5 20.7 4.45 152
2026 08 09 03  22 08 26.195   +11 21 50.52  .38167 1.3569 149.6 20.7 4.71 152
2026 08 09 04  22 08 29.711   +11 20 18.50  .38154 1.3568 149.6 20.7 4.98 152
2026 08 09 05  22 08 33.225   +11 18 46.34  .38140 1.3568 149.7 20.7 5.26 151
2026 08 09 06  22 08 36.739   +11 17 14.04  .38127 1.3568 149.7 20.7 5.55 151
2026 08 09 07  22 08 40.253   +11 15 41.60  .38114 1.3568 149.8 20.7 5.84 151
2026 08 09 08  22 08 43.765   +11 14 09.03  .38101 1.3568 149.8 20.7 6.15 151
2026 08 09 09  22 08 47.277   +11 12 36.31  .38087 1.3568 149.9 20.7 6.46 151
2026 08 09 10  22 08 50.789   +11 11 03.46  .38074 1.3567 149.9 20.7 6.77 151
2026 08 09 11  22 08 54.299   +11 09 30.46  .38061 1.3567 149.9 20.7 7.10 151
2026 08 09 12  22 08 57.809   +11 07 57.33  .38048 1.3567 150.0 20.7 7.44 151
2026 08 09 13  22 09 01.319   +11 06 24.06  .38035 1.3567 150.0 20.7 7.78 151
2026 08 09 14  22 09 04.828   +11 04 50.65  .38022 1.3567 150.1 20.7 8.13 151
2026 08 09 15  22 09 08.336   +11 03 17.10  .38009 1.3566 150.1 20.7 8.49 151
2026 08 09 16  22 09 11.843   +11 01 43.41  .37995 1.3566 150.2 20.7 8.85 151
2026 08 09 17  22 09 15.350   +11 00 09.59  .37982 1.3566 150.2 20.7 9.23 150
2026 08 09 18  22 09 18.856   +10 58 35.62  .37969 1.3566 150.3 20.7 9.61 150
2026 08 09 19  22 09 22.361   +10 57 01.52  .37957 1.3566 150.3 20.7 10.0 150
2026 08 09 20  22 09 25.866   +10 55 27.28  .37944 1.3566 150.3 20.7 10.4 150
2026 08 09 21  22 09 29.371   +10 53 52.90  .37931 1.3566 150.4 20.7 10.8 150
2026 08 09 22  22 09 32.874   +10 52 18.39  .37918 1.3565 150.4 20.7 11.2 150
2026 08 09 23  22 09 36.377   +10 50 43.74  .37905 1.3565 150.5 20.7 11.6 150
2026 08 10 00  22 09 39.879   +10 49 08.94  .37892 1.3565 150.5 20.7 12.1 150